Retour au catalogue

STARLINK-37138

ActifCommunicationsSSO
NORAD 68308·PAYLOAD·🇺🇸 United States

Lancé Mar 20, 2026 depuis Vandenberg Space Force Base

Loading…

Prochains Passages (prochaines 24 heures)

TLE

FraisSource: CelesTrak SupGP

Époque: Sep 14, 2026, 22:43 UTC

1 68308C 26057Q   26257.94701389 -.00040795  00000+0 -12664-2 0  2572
2 68308  97.2856  23.4643 0001452  91.3900 334.5665 15.33460582    10

Suivez STARLINK-37138 en temps réel avec AllMySat

Download on the App Store